Regional Weather Roundup
Issued by NWS Goodland, KS

Home | Current Version | Previous Version | Graphics & Text | Print | Product List | Glossary On
Versions: 1 2 3 4 5 6 7 8 9 10 11 12 13 14 15 16 17 18 19 20 21 22 23 24 25 26 27 28 29 30 31 32 33 34 35 36 37 38 39 40 41 42 43 44 45 46 47 48 49 50
000
ASUS43 KGLD 200959
RWRGLD

GOODLAND FORECAST AREA HOURLY WEATHER ROUNDUP
NATIONAL WEATHER SERVICE GOODLAND KS
300 AM MST SAT DEC 20 2014

...OFFICIAL OBSERVATIONS...

CITY           SKY/WX    TMP DP  RH WIND       PRES   REMARKS
GOODLAND KS    PTCLDY    29  26  89 W9        30.03S
HILL CITY KS   PTCLDY    29  26  89 W5        30.05S
IMPERIAL NEB   PTCLDY    22  16  78 CALM      30.02S
MCCOOK NEB     CLEAR     24  22  91 W5        30.04S
AKRON CO       PTCLDY    28  19  69 W16       29.99S WCI  16
BURLINGTON CO  PTCLDY    28  24  85 W8        30.02F
LIMON CO       CLEAR     16  14  92 NW5       30.02F
$$

...UNOFFICIAL OBSERVATIONS...

CITY           SKY/WX    TMP DP  RH WIND       PRES   REMARKS
COLBY KS       CLEAR     28  28 100 W8        30.04S
GOVE KS          N/A     27  32 100 MISG        N/A
NORTON KS      CLEAR     25  19  80 W7        30.03S
SHARON SPRINGS   N/A     28  26  91 W5          N/A
TRIBUNE KS     CLOUDY    30  30 100 W5        30.04F
KIT CARSON CO    N/A     23  21  91 MISG        N/A
$$



USA.gov is the U.S. government's official web portal to all federal, state and local government web resources and services.